Showing default

CE-SAT IIB, 46818

Orbit data source: Space-Track

CE-SAT IIB, 46818 is a payload satellite owned by Canon STL (JP) in SSO that was launched on Wed, 28 Oct 2020 UTC via an ELECTRON launch vehicle from the Rocket Lab Launch Complex (RLLC). Payloads include a variety of satellites, spacecraft, and rockets equipped with specific instruments for various scientific and technological missions. These include communications satellites like Starlink; space stations such as the ISS; scientific satellites like the Hubble; Earth observation satellites from companies like Planet Labs, Umbra, and HawkEye 360; GPS; miniature CubeSats for education and research; and military/defense satellites.

Loading next visibility...
CE-SAT IIB details
Identifier
46818, 2020-077F
Orbit
SSO
Last TLE update8 hours ago
Origin
Flag of JPCanon STL (JP / JPN)
ManufacturerCanon STL
MissionOperational Commercial Imaging
Bus & MotorCE-SAT, Unknown motor
Mass35 kg wet, 35 kg dry
Launch date (UTC)
2020-10-28 (4 years ago)
Launch vehicle
ELECTRON
Launch site
Rocket Lab Launch Complex (RLLC)
Object type
Payload
Rocket body
Debris
Shape & HBRBox, Unknown HBR
Radar Cross Section0.575 m², Medium (>0.1 m² and < 1m²)

Expand to show TLE details & history

TLE from 8 hours ago
0 CE-SAT IIB
1 46818U 20077F   24361.14706920  .00031558  00000-0  73172-3 0  9993
2 46818  97.2882  58.9275 0008072  20.2668 339.8899 15.42319165231194
Epoch: 2024-12-26T03:31Z
Definitive object data (Epoch: 2024-12-26T03:31:46.778Z)
Latitude0.00001°
Longitude-89.14805°
Altitude437.222 km
Speed7.652 km/s
True Right ascension03h 55m 42s
True Declination0° 00' 00"
Sunlit
Object was in full shadow at TLE epoch
Visualization TLE readout
Latitude80.5389°
Longitude140.94108°
Altitude451.384 km
Speed7.649 km/s
Apparent Right ascension22h 26m 08s
Apparent Declination25° 19' 17"
Sunlit
Object is in daylight
Visualization observer readout
Local Sidereal Time11:05:11
Azimuth9.667° NNE
Elevation-24.131°
Doppler factor1
Orbital elements
Apogee altitude441.698 km
Perigee altitude430.697 km
Semi-major axis6,814.335 km
Eccentricity0.0008072
Inclination97.2882°
RAAN58.9275°
Arg. of periapsis20.2668°
True anomaly339.85807°
Mean anomaly339.8899°
Eccentric anomaly339.87399°
Mean motion3.85841 °/min
BSTAR0.00073172
Orbital period93.3 mins
Loading maneuver chart data...
Loading historical data...
Loading historical data...
Loading historical data...
Loading historical data...
Loading historical data...
Loading historical data...
Loading historical data...

CE-SAT IIB Visibility forecast

Observer location: undefined°, undefined

Span
Click to sort rows by Start time (UTC) header in descending order
Start Az.
Max El. time (UTC)
Max El. Az.
Max El.
End time (UTC)
End Az.
5 mins2024-12-26 16:32:47.547Z30.97° NE2024-12-26 16:35:47.547Z107.55° ESE30.853°2024-12-26 16:37:47.547Z160.112° S
5 mins2024-12-27 04:34:47.547Z203.707° SW2024-12-27 04:36:47.547Z263.179° W30.082°2024-12-27 04:39:47.547Z330.101° NNW
|